Lancaster, OH

6:04 PM EDT on October 21, 2017 (GMT -0400)
Fairfield County

Weather History for KLHQ - October, 2011

Change the Weather History Date:

Wednesday, October 12, 2011

  Actual Average Record
Temperature  
Mean Temperature 60 °F -  
Max Temperature 62 °F 64 °F 86 °F (1943)
Min Temperature 57 °F 40 °F 28 °F (1957)
Degree Days  
Heating Degree Days 6    
Growing Degree Days 10 (Base 50)    
Moisture  
Dew Point 56 °F    
Average Humidity 92    
Maximum Humidity 97    
Minimum Humidity 72    
Precipitation  
Precipitation 0.33 in - - ()
Sea Level Pressure  
Sea Level Pressure 29.87 in    
Wind  
Wind Speed 3 mph (SE)    
Max Wind Speed 7 mph    
Max Gust Speed -    
Visibility 6 miles    
Events Rain    
Averages and records for this station are not official NWS values.
T = Trace of Precipitation, MM = Missing Value Source: NWS Daily Summary

Daily Weather History Graph

Daily Weather History Graph

Search for Another Location

Airport or City:

Trip Planner

Search our weather history database for the weather conditions in past years. The results will help you decide how hot, cold, wet, or windy it might be!

Date:

Astronomy

Oct. 12, 2011 Rise Set
Actual Time 7:37 AM EDT 6:56 PM EDT
Civil Twilight 7:10 AM EDT 7:23 PM EDT
Nautical Twilight 6:39 AM EDT 7:54 PM EDT
Astronomical Twilight 6:07 AM EDT 8:25 PM EDT
Moon 6:57 PM EDT (10/12) 8:10 AM EDT (10/12)
Length of Visible Light 12h 12m
Length of Day
11h 18m
Full, 100% of the Moon is Illuminated
Oct 12
Full
Oct 19
Last Quarter
Oct 26
New
Nov 2
First Quarter
Nov 10
Full

Hourly Weather History & Observations

Time (EDT) Temp. Dew Point Humidity Pressure Visibility Wind Dir Wind Speed Gust Speed Precip Events Conditions
12:53 AM 62.1 °F 53.1 °F 72% 29.99 in 10.0 mi South 6.9 mph - N/A   Partly Cloudy
1:53 AM 61.0 °F 54.0 °F 78% 29.98 in 10.0 mi South 6.9 mph - N/A   Overcast
3:53 AM 57.0 °F 55.0 °F 93% 29.97 in 5.0 mi SSE 4.6 mph - 0.04 in Rain Light Rain
4:53 AM 57.0 °F 55.0 °F 93% 29.96 in 4.0 mi ESE 3.5 mph - 0.05 in Rain Rain
5:53 AM 57.0 °F 55.0 °F 93% 29.95 in 6.0 mi Calm Calm - 0.07 in Rain Light Rain
6:29 AM 57.2 °F 55.4 °F 94% 29.95 in 6.0 mi Calm Calm - 0.02 in Rain Light Rain
6:53 AM 57.0 °F 55.0 °F 93% 29.94 in 7.0 mi Calm Calm - 0.03 in Rain Light Rain
7:22 AM 57.2 °F 55.4 °F 94% 29.95 in 6.0 mi ENE 4.6 mph - 0.01 in Rain Light Rain
7:33 AM 57.2 °F 55.4 °F 94% 29.94 in 5.0 mi Calm Calm - 0.03 in Rain Light Rain
7:53 AM 57.0 °F 55.0 °F 93% 29.94 in 4.0 mi ENE 3.5 mph - 0.04 in Rain Light Rain
8:15 AM 57.2 °F 55.4 °F 94% 29.94 in 5.0 mi ENE 4.6 mph - 0.01 in Rain Light Rain
8:24 AM 57.2 °F 55.4 °F 94% 29.93 in 6.0 mi ENE 4.6 mph - 0.01 in Rain Light Rain
8:40 AM 57.2 °F 55.4 °F 94% 29.93 in 5.0 mi Calm Calm - 0.02 in Rain Light Rain
8:53 AM 57.0 °F 55.9 °F 96% 29.93 in 3.0 mi Calm Calm - 0.03 in Rain Light Rain
9:00 AM 57.2 °F 55.4 °F 94% 29.93 in 3.0 mi Calm Calm - 0.01 in Rain Light Rain
9:17 AM 57.2 °F 55.4 °F 94% 29.93 in 3.0 mi Calm Calm - 0.03 in Rain Light Rain
9:26 AM 57.2 °F 55.4 °F 94% 29.93 in 4.0 mi Calm Calm - 0.03 in Rain Light Rain
9:53 AM 57.9 °F 55.9 °F 93% 29.91 in 5.0 mi NNE 3.5 mph - 0.04 in Rain Light Rain
10:53 AM 57.9 °F 57.0 °F 97% 29.89 in 5.0 mi ENE 3.5 mph - 0.03 in Rain Light Rain
11:45 AM 59.0 °F 57.2 °F 94% 29.88 in 6.0 mi Calm Calm - 0.00 in   Overcast
12:53 PM 59.0 °F 57.0 °F 93% 29.86 in 3.0 mi Calm Calm - N/A   Overcast
1:15 PM 59.0 °F 57.2 °F 94% 29.87 in 4.0 mi Calm Calm - N/A   Overcast
1:49 PM 59.0 °F 57.2 °F 94% 29.85 in 3.0 mi Calm Calm - 0.01 in   Overcast
1:56 PM 59.0 °F 57.2 °F 94% 29.85 in 2.0 mi SW 3.5 mph - 0.00 in Rain Light Rain
2:21 PM 59.0 °F 57.2 °F 94% 29.84 in 4.0 mi Calm Calm - 0.00 in   Overcast
2:51 PM 60.8 °F 57.2 °F 88% 29.83 in 8.0 mi Calm Calm - 0.00 in   Overcast
2:53 PM 60.1 °F 57.9 °F 93% 29.83 in 7.0 mi Calm Calm - 0.00 in   Overcast
3:04 PM 60.8 °F 57.2 °F 88% 29.83 in 8.0 mi WSW 4.6 mph - N/A   Overcast
3:23 PM 60.8 °F 57.2 °F 88% 29.82 in 9.0 mi Calm Calm - N/A   Overcast
3:42 PM 60.8 °F 57.2 °F 88% 29.81 in 9.0 mi Calm Calm - N/A   Overcast
3:53 PM 61.0 °F 57.0 °F 87% 29.81 in 8.0 mi WSW 3.5 mph - N/A   Overcast
5:53 PM 61.0 °F 55.9 °F 83% 29.80 in 10.0 mi Calm Calm - N/A   Overcast
6:27 PM 60.8 °F 57.2 °F 88% 29.81 in 10.0 mi Calm Calm - N/A   Overcast
6:34 PM 60.8 °F 57.2 °F 88% 29.81 in 10.0 mi Calm Calm - N/A   Overcast
6:53 PM 60.1 °F 57.0 °F 90% 29.80 in 9.0 mi Calm Calm - N/A   Overcast
7:53 PM 59.0 °F 57.9 °F 96% 29.80 in 6.0 mi Calm Calm - N/A   Overcast
8:11 PM 59.0 °F 57.2 °F 94% 29.80 in 6.0 mi Calm Calm - N/A   Overcast
8:53 PM 60.1 °F 57.9 °F 93% 29.80 in 6.0 mi South 4.6 mph - N/A   Overcast
9:03 PM 59.0 °F 57.2 °F 94% 29.81 in 5.0 mi Calm Calm - N/A   Overcast
9:32 PM 59.0 °F 57.2 °F 94% 29.81 in 5.0 mi SSE 3.5 mph - N/A   Overcast
9:43 PM 59.0 °F 57.2 °F 94% 29.81 in 6.0 mi SE 3.5 mph - N/A   Overcast
9:53 PM 59.0 °F 57.9 °F 96% 29.80 in 6.0 mi Calm Calm - N/A   Overcast
10:29 PM 59.0 °F 57.2 °F 94% 29.80 in 6.0 mi Calm Calm - N/A   Overcast
10:37 PM 59.0 °F 57.2 °F 94% 29.80 in 6.0 mi SE 3.5 mph - N/A   Overcast
11:53 PM 59.0 °F 57.0 °F 93% 29.78 in 7.0 mi SSE 3.5 mph - N/A   Overcast